Temp
64 64 64 61 60 60 59 60 60 60 61 60 58 56 53 55 55 54 54 52 52 52
62 60 59 59 60 59 59 59 59 58 58 56 55 53 56 56 54 54 53 52 52 52
60 60 60 59 57 57 57 58 58 57 56 54 54 56 56 55 55 53 52 53 51 50
60 59 59 58 57 56 56 56 56 56 55 54 54 55 53 53 53 51 51 52 50 49
60 58 57 57 56 55 54 55 54 54 54 54 54 53 52 52 52 51 50 49 49 48
59 57 56 56 55 55 54 53 53 54 52 52 52 52 52 52 51 50 49 48 47 46
57 56 55 55 54 53 53 52 53 53 52 51 52 52 51 50 49 49 48 47 46 45
56 56 55 54 53 53 52 52 53 51 51 51 50 50 48 47 47 47 45 45 45 44
55 54 53 53 52 52 52 52 52 51 49 49 50 36 35 38 45 45 43 42 42 42
54 52 53 53 53 52 51 52 51 51 49 48 47 35 34 34 43 43 42 40 40 39
53 52 53 53 52 52 51 50 50 50 49 47 44 34 33 33 42 42 41 39 39 38
53 53 53 52 51 52 51 50 50 49 47 45 44 33 32 33 39 38 37 38 39 36
54 52 52 52 51 51 50 49 49 46 45 37 41 31 32 33 38 34 35 37 37 33
53 52 52 51 51 50 49 48 44 41 42 41 39 38 31 31 34 34 33 34 35 36
MSLP
1025.42 1025.52 1025.55 1025.73 1025.74 1025.52 1025.35 1025.03 1024.77 1024.37 1023.89 1024.09 1024.49 1024.94 1025.21 1024.62 1024.44 1024.64 1024.63 1024.64 1024.56 1024.28
1025.68 1025.82 1025.93 1025.92 1025.88 1025.63 1025.46 1025.10 1024.64 1024.47 1024.34 1024.56 1024.87 1024.92 1024.36 1024.01 1024.26 1024.37 1024.47 1024.42 1024.27 1024.01
1025.63 1025.72 1025.79 1025.80 1025.82 1025.68 1025.43 1025.02 1024.68 1024.39 1024.48 1024.79 1024.54 1024.14 1024.06 1023.95 1023.94 1024.25 1024.27 1024.10 1024.04 1024.04
1025.38 1025.41 1025.54 1025.72 1025.69 1025.62 1025.46 1025.12 1024.81 1024.44 1024.47 1024.43 1024.19 1023.94 1024.07 1023.86 1023.89 1024.04 1023.94 1023.82 1023.75 1023.76
1025.04 1025.21 1025.41 1025.55 1025.52 1025.54 1025.33 1025.08 1024.81 1024.65 1024.44 1024.15 1023.93 1023.89 1023.79 1023.69 1023.67 1023.61 1023.69 1023.69 1023.62 1023.47
1024.77 1024.98 1025.17 1025.24 1025.27 1025.21 1025.03 1024.81 1024.61 1024.31 1024.17 1024.14 1023.86 1023.82 1023.68 1023.63 1023.61 1023.60 1023.69 1023.70 1023.63 1023.49
1024.46 1024.68 1024.86 1024.96 1024.96 1024.85 1024.73 1024.50 1024.17 1023.99 1023.82 1023.83 1023.67 1023.80 1023.86 1023.86 1023.74 1023.68 1023.64 1023.64 1023.52 1023.42
1024.17 1024.33 1024.44 1024.53 1024.49 1024.42 1024.35 1024.09 1023.79 1023.90 1023.80 1023.73 1023.78 1024.21 1024.38 1024.07 1024.04 1023.81 1023.73 1023.62 1023.53 1023.40
1023.76 1023.96 1024.03 1024.01 1024.06 1023.94 1023.74 1023.55 1023.31 1023.29 1023.56 1023.63 1024.02 1025.32 1025.34 1024.79 1024.31 1023.97 1023.72 1023.55 1023.47 1023.39
1023.33 1023.46 1023.40 1023.39 1023.37 1023.28 1023.16 1023.07 1023.01 1022.90 1023.27 1023.53 1023.98 1025.34 1025.38 1025.32 1024.52 1024.02 1023.75 1023.69 1023.51 1023.28
1022.78 1022.82 1022.75 1022.67 1022.69 1022.67 1022.68 1022.66 1022.70 1022.63 1022.92 1023.35 1024.31 1025.37 1025.32 1025.25 1024.21 1023.92 1023.78 1023.71 1023.56 1023.37
1022.20 1022.17 1022.09 1021.99 1022.07 1022.18 1022.21 1022.21 1022.18 1022.52 1022.83 1023.35 1024.02 1025.21 1025.23 1025.01 1024.29 1024.00 1023.86 1023.65 1023.41 1023.60
1021.75 1021.66 1021.52 1021.49 1021.55 1021.65 1021.78 1021.90 1022.06 1022.44 1022.95 1023.64 1024.01 1025.09 1025.08 1024.86 1024.27 1024.09 1023.82 1023.42 1023.21 1023.37
1021.43 1021.23 1021.12 1021.06 1021.11 1021.07 1021.18 1021.47 1022.02 1022.48 1022.97 1023.41 1023.96 1024.21 1024.81 1024.85 1024.50 1024.13 1023.85 1023.39 1023.06 1023.01
Wind_Speed
7 5 5 7 7 7 8 9 12 11 7 2 3 2 4 8 5 5 6 8 8 8
5 5 5 7 8 8 9 9 9 8 4 3 3 6 8 5 5 5 7 8 10 9
4 4 6 7 9 10 10 10 10 6 5 4 9 8 7 6 5 6 7 7 9 11
3 5 6 7 8 9 10 9 9 8 7 10 10 11 9 8 7 8 9 10 10 10
3 4 5 7 8 9 10 9 8 8 9 11 12 9 7 8 9 9 11 11 11 12
1 3 6 7 8 9 9 9 9 9 9 9 8 8 8 8 8 8 9 10 11 13
4 5 6 7 8 9 9 8 8 8 9 8 8 7 7 7 8 8 9 10 12 12
5 6 6 7 8 9 9 8 7 7 6 6 5 3 5 5 9 10 10 11 11 10
6 7 7 8 9 10 9 9 9 9 7 6 2 5 3 6 8 8 10 10 10 10
7 8 9 8 10 10 9 9 10 10 7 7 3 4 3 4 8 8 8 9 9 9
8 9 10 9 10 9 8 8 8 8 6 6 5 2 2 5 8 7 8 8 9 9
8 10 10 11 10 10 8 8 8 6 6 6 5 3 1 7 6 6 8 7 8 8
8 10 11 11 11 10 8 7 5 5 5 2 4 5 0 5 5 5 6 7 8 3
9 11 11 11 11 10 9 6 4 4 5 6 4 5 3 1 5 5 6 7 7 6
Wind_Direction
55 44 21 5 347 331 327 324 323 313 299 227 214 131 330 270 272 301 292 302 303 295
81 52 17 359 346 343 333 328 328 319 258 235 209 280 283 296 293 295 297 299 297 301
114 55 19 2 348 339 337 332 326 295 270 243 297 297 308 283 282 294 300 300 310 308
100 45 16 351 342 337 327 325 315 306 288 286 305 305 295 276 281 280 295 307 308 304
69 21 348 341 335 331 316 314 305 296 291 290 298 294 278 282 292 288 304 313 309 306
284 315 326 331 328 320 313 306 297 293 300 297 294 290 283 289 284 286 306 311 306 306
267 293 308 315 318 319 310 301 297 291 294 302 298 292 303 309 301 304 308 307 305 307
259 264 289 300 318 321 304 289 287 298 299 289 286 315 303 307 297 313 316 311 313 312
260 269 283 299 313 307 296 291 284 277 290 278 255 82 51 357 311 312 310 318 316 316
260 263 282 291 298 309 304 296 292 286 275 257 195 126 65 354 307 314 321 319 318 318
265 271 283 284 290 305 294 297 294 295 261 242 118 145 37 316 305 316 323 321 317 317
285 280 288 287 284 293 290 288 287 283 249 234 174 147 17 310 322 328 319 319 315 332
289 291 290 287 279 285 276 275 272 249 242 102 211 151 148 323 323 322 316 316 321 320
296 297 293 286 279 277 264 263 250 227 216 219 223 176 184 292 310 319 320 320 320 325